Subject,Start Date,Start Time,End Date,End Time,All Day Event,Description,Location,Private
Sehri,12/03/2024,4:51,,,,Ramadhan 1 for Baitul Futuh Mosque,,
Sehri,13/03/2024,4:49,,,,Ramadhan 2 for Baitul Futuh Mosque,,
Sehri,14/03/2024,4:47,,,,Ramadhan 3 for Baitul Futuh Mosque,,
Sehri,15/03/2024,4:44,,,,Ramadhan 4 for Baitul Futuh Mosque,,
Sehri,16/03/2024,4:42,,,,Ramadhan 5 for Baitul Futuh Mosque,,
Sehri,17/03/2024,4:40,,,,Ramadhan 6 for Baitul Futuh Mosque,,
Sehri,18/03/2024,4:38,,,,Ramadhan 7 for Baitul Futuh Mosque,,
Sehri,19/03/2024,4:35,,,,Ramadhan 8 for Baitul Futuh Mosque,,
Sehri,20/03/2024,4:33,,,,Ramadhan 9 for Baitul Futuh Mosque,,
Sehri,21/03/2024,4:31,,,,Ramadhan 10 for Baitul Futuh Mosque,,
Sehri,22/03/2024,4:28,,,,Ramadhan 11 for Baitul Futuh Mosque,,
Sehri,23/03/2024,4:26,,,,Ramadhan 12 for Baitul Futuh Mosque,,
Sehri,24/03/2024,4:24,,,,Ramadhan 13 for Baitul Futuh Mosque,,
Sehri,25/03/2024,4:22,,,,Ramadhan 14 for Baitul Futuh Mosque,,
Sehri,26/03/2024,4:19,,,,Ramadhan 15 for Baitul Futuh Mosque,,
Sehri,27/03/2024,4:17,,,,Ramadhan 16 for Baitul Futuh Mosque,,
Sehri,28/03/2024,4:15,,,,Ramadhan 17 for Baitul Futuh Mosque,,
Sehri,29/03/2024,4:13,,,,Ramadhan 18 for Baitul Futuh Mosque,,
Sehri,30/03/2024,4:10,,,,Ramadhan 19 for Baitul Futuh Mosque,,
Sehri,31/03/2024,5:08,,,,Ramadhan 20 for Baitul Futuh Mosque,,
Sehri,01/04/2024,5:06,,,,Ramadhan 21 for Baitul Futuh Mosque,,
Sehri,02/04/2024,5:03,,,,Ramadhan 22 for Baitul Futuh Mosque,,
Sehri,03/04/2024,5:01,,,,Ramadhan 23 for Baitul Futuh Mosque,,
Sehri,04/04/2024,4:59,,,,Ramadhan 24 for Baitul Futuh Mosque,,
Sehri,05/04/2024,4:57,,,,Ramadhan 25 for Baitul Futuh Mosque,,
Sehri,06/04/2024,4:55,,,,Ramadhan 26 for Baitul Futuh Mosque,,
Sehri,07/04/2024,4:52,,,,Ramadhan 27 for Baitul Futuh Mosque,,
Sehri,08/04/2024,4:50,,,,Ramadhan 28 for Baitul Futuh Mosque,,
Sehri,09/04/2024,4:48,,,,Ramadhan 29 for Baitul Futuh Mosque,,
Iftari,12/03/2024,18:01,,,,Ramadhan 1 for Baitul Futuh Mosque,,
Iftari,13/03/2024,18:02,,,,Ramadhan 2 for Baitul Futuh Mosque,,
Iftari,14/03/2024,18:04,,,,Ramadhan 3 for Baitul Futuh Mosque,,
Iftari,15/03/2024,18:06,,,,Ramadhan 4 for Baitul Futuh Mosque,,
Iftari,16/03/2024,18:07,,,,Ramadhan 5 for Baitul Futuh Mosque,,
Iftari,17/03/2024,18:09,,,,Ramadhan 6 for Baitul Futuh Mosque,,
Iftari,18/03/2024,18:11,,,,Ramadhan 7 for Baitul Futuh Mosque,,
Iftari,19/03/2024,18:12,,,,Ramadhan 8 for Baitul Futuh Mosque,,
Iftari,20/03/2024,18:14,,,,Ramadhan 9 for Baitul Futuh Mosque,,
Iftari,21/03/2024,18:16,,,,Ramadhan 10 for Baitul Futuh Mosque,,
Iftari,22/03/2024,18:18,,,,Ramadhan 11 for Baitul Futuh Mosque,,
Iftari,23/03/2024,18:19,,,,Ramadhan 12 for Baitul Futuh Mosque,,
Iftari,24/03/2024,18:21,,,,Ramadhan 13 for Baitul Futuh Mosque,,
Iftari,25/03/2024,18:23,,,,Ramadhan 14 for Baitul Futuh Mosque,,
Iftari,26/03/2024,18:24,,,,Ramadhan 15 for Baitul Futuh Mosque,,
Iftari,27/03/2024,18:26,,,,Ramadhan 16 for Baitul Futuh Mosque,,
Iftari,28/03/2024,18:28,,,,Ramadhan 17 for Baitul Futuh Mosque,,
Iftari,29/03/2024,18:29,,,,Ramadhan 18 for Baitul Futuh Mosque,,
Iftari,30/03/2024,18:31,,,,Ramadhan 19 for Baitul Futuh Mosque,,
Iftari,31/03/2024,19:33,,,,Ramadhan 20 for Baitul Futuh Mosque,,
Iftari,01/04/2024,19:34,,,,Ramadhan 21 for Baitul Futuh Mosque,,
Iftari,02/04/2024,19:36,,,,Ramadhan 22 for Baitul Futuh Mosque,,
Iftari,03/04/2024,19:38,,,,Ramadhan 23 for Baitul Futuh Mosque,,
Iftari,04/04/2024,19:39,,,,Ramadhan 24 for Baitul Futuh Mosque,,
Iftari,05/04/2024,19:41,,,,Ramadhan 25 for Baitul Futuh Mosque,,
Iftari,06/04/2024,19:43,,,,Ramadhan 26 for Baitul Futuh Mosque,,
Iftari,07/04/2024,19:44,,,,Ramadhan 27 for Baitul Futuh Mosque,,
Iftari,08/04/2024,19:46,,,,Ramadhan 28 for Baitul Futuh Mosque,,
Iftari,09/04/2024,19:48,,,,Ramadhan 29 for Baitul Futuh Mosque,,
